Terminal Aerodrome Forecast
Issued by NWS Sterling, VA

Current Version | Previous Version | Text Only | Print | Product List | Glossary Off
Versions: 1 2 3 4 5 6 7 8 9 10 11 12 13 14 15 16 17 18 19 20 21 22 23 24 25 26

000
FTUS41 KLWX 300900 AAA
TAFIAD
TAF AMD
KIAD 300900Z 3009/3112 19009KT P6SM SCT040 OVC080
     FM301100 20010KT P6SM OVC040
     FM301600 26011G18KT P6SM SCT250
     FM310000 29008KT P6SM FEW050
     FM310800 23005KT P6SM SCT250=

USA.gov is the U.S. government's official web portal to all federal, state and local government web resources and services.